Flag for Germany Weather past 2 weeks in Ahrensburg, Schleswig-Holstein, Germany

Now
59 °F

Passing clouds.


Feels Like: 57 °F
Forecast: 44 / 71 °F
Wind: 13 mph from Northwest

Location: Hamburg-Fuhlsbuettel

Current Time: Jul 31, 2015 at 7:34:53 PM

Latest Report: Jul 31, 2015 at 7:20 PM


Visibility: N/A

Pressure: 30.09 "Hg

Humidity: 59%

Dew point: 45 °F

Location of AhrensburgLocation

Historic Weather in Ahrensburg — Graph

°F

Ahrensburg temperature yesterday

Maximum temperature yesterday: 63 °F (at 3:50 PM)
Minimum temperature yesterday: 55 °F (at 12:20 AM)
Average temperature yesterday: 57 °F

Past Weeks' High & Low Weather Summary

 TemperatureHumidityPressure
High86 °F (Jul 17, 4:50 PM)100% (Jul 18, 6:20 AM)30.09 "Hg (Jul 18, 6:20 AM)
Low48 °F (Jul 24, 4:50 AM)36% (Jul 24, 4:50 PM)29.42 "Hg (Jul 25, 1:20 PM)
Average62 °F77%29.80 "Hg
* Reported Jul 16 6:20 PM — Jul 31 6:20 PM, Ahrensburg, Weather by CustomWeather, © 2015

Note: Actual official high and low records may vary slightly from our data, if they occured in-between our weather recording intervals... More about our weather records

Advertising

Ahrensburg weather history for previous 24 hours

 ConditionsComfort  
Time TempWeatherWind HumidityBarometerVisibility
6:20 PM
Fri, Jul 31
63 °FPassing clouds.14 mph49%30.07 "HgN/A
5:50 PM61 °FScattered clouds.15 mph48%30.07 "HgN/A
5:20 PM63 °FScattered clouds.16 mph49%30.07 "HgN/A
4:50 PM61 °FPassing clouds.13 mph52%30.07 "HgN/A
4:20 PM61 °FScattered clouds.17 mph55%30.09 "HgN/A
3:50 PM61 °FScattered clouds.16 mph55%30.09 "HgN/A
3:20 PM61 °FScattered clouds.17 mph48%30.09 "HgN/A
2:50 PM63 °FScattered clouds.15 mph52%30.07 "HgN/A
2:20 PM61 °FPartly sunny.14 mph63%30.09 "HgN/A
1:50 PM59 °FPartly sunny.14 mph63%30.09 "HgN/A
1:20 PM59 °FPartly sunny.9 mph68%30.07 "HgN/A
12:50 PM57 °FSprinkles. Broken clouds.17 mph72%30.07 "HgN/A
12:20 PM61 °FPartly sunny.10 mph63%30.07 "HgN/A
11:50 AM57 °FPartly sunny.5 mph77%30.07 "HgN/A
11:20 AM57 °FBroken clouds.12 mph72%30.07 "HgN/A
10:50 AM55 °FScattered showers. Broken clouds.10 mph82%30.07 "HgN/A
10:20 AM55 °FSprinkles. Broken clouds.13 mph77%30.07 "HgN/A
9:20 AM57 °FScattered clouds.10 mph77%30.04 "HgN/A
8:50 AM55 °FPartly sunny.8 mph82%30.04 "HgN/A
8:20 AM55 °FBroken clouds.9 mph82%30.04 "HgN/A
7:50 AM54 °FBroken clouds.8 mph82%30.04 "HgN/A
7:20 AM54 °FBroken clouds.7 mph88%30.01 "HgN/A
6:50 AM54 °FPartly sunny.8 mph88%30.01 "HgN/A
6:20 AM54 °FSprinkles. Passing clouds.9 mph88%30.01 "HgN/A
5:50 AM50 °FClear.7 mph94%30.01 "Hg10 mi
5:20 AM52 °FClear.6 mph88%30.01 "Hg10 mi
4:50 AM50 °FClear.7 mph88%30.01 "Hg10 mi
4:20 AM52 °FClear.7 mph88%29.98 "Hg10 mi
3:50 AM52 °FClear.7 mph88%29.98 "Hg10 mi
3:20 AM52 °FPassing clouds.7 mph88%29.98 "HgN/A
2:50 AM54 °FClear.6 mph82%29.98 "Hg10 mi
2:20 AM55 °FPassing clouds.7 mph77%29.98 "HgN/A
1:50 AM55 °FPassing clouds.7 mph77%29.98 "HgN/A
1:20 AM55 °FPassing clouds.8 mph82%29.98 "HgN/A
12:50 AM55 °FPassing clouds.10 mph82%29.98 "HgN/A
12:20 AM55 °FPartly cloudy.9 mph82%29.95 "HgN/A
11:20 PM
Thu, Jul 30
55 °FPassing clouds.12 mph82%29.95 "HgN/A
10:50 PM55 °FPassing clouds.10 mph82%29.95 "HgN/A
10:20 PM55 °FPassing clouds.10 mph82%29.95 "HgN/A
9:50 PM55 °FPartly sunny.16 mph82%29.92 "HgN/A
9:20 PM57 °FSprinkles. Broken clouds.14 mph77%29.92 "HgN/A
8:50 PM57 °FScattered showers. Partly sunny.13 mph77%29.92 "HgN/A
8:20 PM57 °FScattered showers. Partly sunny.18 mph77%29.92 "HgN/A
7:50 PM57 °FScattered showers. Broken clouds.18 mph77%29.89 "HgN/A
7:20 PM59 °FScattered showers. Broken clouds.17 mph72%29.89 "HgN/A
Weather by CustomWeather, © 2015

See weather overviewHow to use our weather pages